Location: Brabourne
(51.1333°N, 1.0000°E)
Time: 05:08:23
(UTC+00:00)

NOSS 3-1 (A) - Pass Details

Date: 28 October 2021
Orbit: 721 x 1491 km, 63.4° (Epoch: 22 November)

Event Time Altitude Azimuth Distance (km) Brightness Sun altitude
Rises 18:29:59 0° 228° (SW) 3,241 7.0 -18.2°
Reaches altitude 10° 18:32:13 10° 230° (SW) 2,378 6.2 -18.6°
Maximum altitude 18:37:41 78° 317° (NW) 923 3.4 -19.4°
Enters shadow 18:42:39 18° 42° (NE) 2,254 5.1 -20.2°
